N10ML DNYO-DNAA

Flight info

Callsign N10ML
Flight time N/A
Altitude 43000
Route RUVKO UB736 JOS UJ332 USKIP
Aircraft HDJT/L-SABDGRWY/H

Departure

Time 2026-04-29 20:46
Airport Yola Airport (DNYO)

Arrival

Time N/A
Airport Nnamdi Azikiwe International Airport (DNAA)
Time Latitude Longitude Altitude Speed Heading
2026-04-29 20:37 9.26671 12.42661 585 ft 0 kts 12°
2026-04-29 20:44 9.26706 12.42676 587 ft 10 kts 22°
2026-04-29 20:44 9.26806 12.42708 591 ft 20 kts 65°
2026-04-29 20:44 9.26876 12.42848 585 ft 28 kts
2026-04-29 20:45 9.27037 12.42805 586 ft 17 kts 313°
2026-04-29 20:45 9.27085 12.42815 586 ft 1 kts 126°
2026-04-29 20:45 9.27055 12.42823 585 ft 16 kts 171°
2026-04-29 20:45 9.26708 12.42881 585 ft 86 kts 171°
2026-04-29 20:46 9.25899 12.43014 625 ft 142 kts 172°
2026-04-29 20:46 9.24953 12.43189 1361 ft 136 kts 174°
2026-04-29 20:46 9.24004 12.42981 1652 ft 152 kts 220°
2026-04-29 20:46 9.23496 12.42015 1694 ft 168 kts 268°
2026-04-29 20:47 9.23757 12.40785 1797 ft 191 kts 288°
2026-04-29 20:47 9.24207 12.39444 2148 ft 207 kts 283°
2026-04-29 20:47 9.24411 12.38040 3149 ft 203 kts 276°
2026-04-29 20:47 9.24616 12.36556 3744 ft 220 kts 280°
2026-04-29 20:48 9.24912 12.35045 4573 ft 224 kts 282°
2026-04-29 20:48 9.25225 12.33462 5286 ft 234 kts 282°
2026-04-29 20:48 9.25534 12.31819 6040 ft 240 kts 281°
2026-04-29 20:48 9.25852 12.30139 6774 ft 246 kts 282°
2026-04-29 20:49 9.26178 12.28419 7520 ft 252 kts 282°
2026-04-29 20:49 9.26513 12.26659 8263 ft 257 kts 282°
2026-04-29 20:49 9.26855 12.24863 9006 ft 263 kts 282°
2026-04-29 20:49 9.27203 12.23020 9768 ft 268 kts 282°
2026-04-29 20:50 9.27559 12.21156 10496 ft 271 kts 282°
2026-04-29 20:50 9.27914 12.19277 11258 ft 273 kts 282°
2026-04-29 20:50 9.28273 12.17385 12019 ft 275 kts 282°
2026-04-29 20:50 9.28636 12.15477 12769 ft 277 kts 282°
2026-04-29 20:51 9.28995 12.13576 13521 ft 279 kts 283°
2026-04-29 20:51 9.29366 12.11629 14190 ft 282 kts 283°
2026-04-29 20:51 9.29736 12.09676 14857 ft 284 kts 282°
2026-04-29 20:51 9.30110 12.07697 15507 ft 287 kts 282°
2026-04-29 20:52 9.30488 12.05706 16160 ft 289 kts 282°
2026-04-29 20:52 9.30868 12.03696 16800 ft 292 kts 282°
2026-04-29 20:52 9.31254 12.01664 17441 ft 295 kts 282°
2026-04-29 20:52 9.31642 11.99607 18071 ft 298 kts 282°
2026-04-29 20:53 9.32035 11.97538 18614 ft 301 kts 282°
2026-04-29 20:53 9.32431 11.95440 19121 ft 305 kts 282°
2026-04-29 20:53 9.32827 11.93346 19619 ft 309 kts 282°
2026-04-29 20:53 9.33234 11.91193 20125 ft 312 kts 282°
2026-04-29 20:54 9.34059 11.86823 21112 ft 319 kts 281°
2026-04-29 20:54 9.34480 11.84597 21611 ft 323 kts 281°
2026-04-29 20:54 9.34903 11.82354 22091 ft 326 kts 281°
2026-04-29 20:55 9.35331 11.80086 22579 ft 330 kts 281°
2026-04-29 20:55 9.35764 11.77792 23063 ft 333 kts 281°
2026-04-29 20:55 9.36201 11.75471 23521 ft 337 kts 281°
2026-04-29 20:55 9.36642 11.73133 23949 ft 338 kts 281°
2026-04-29 20:56 9.37083 11.70790 24388 ft 339 kts 281°
2026-04-29 20:56 9.37526 11.68445 24835 ft 340 kts 281°
2026-04-29 20:56 9.37969 11.66087 25277 ft 341 kts 281°
2026-04-29 20:56 9.38408 11.63757 25703 ft 342 kts 281°
2026-04-29 20:57 9.38855 11.61379 26138 ft 343 kts 281°
2026-04-29 20:57 9.39302 11.59002 26568 ft 345 kts 279°
2026-04-29 20:57 9.39717 11.56595 26919 ft 347 kts 290°
2026-04-29 20:57 9.40263 11.54210 27267 ft 350 kts 292°
2026-04-29 20:58 9.40839 11.51804 27680 ft 350 kts 294°
2026-04-29 20:58 9.41537 11.49446 28116 ft 349 kts 300°
2026-04-29 20:58 9.42532 11.47285 28580 ft 345 kts 312°
2026-04-29 20:58 9.43389 11.46140 28884 ft 340 kts 325°
2026-04-29 20:59 9.45400 11.45241 29747 ft 282 kts 34°
2026-04-29 20:59 9.46423 11.46447 27833 ft 208 kts 126°
2026-04-29 20:59 9.45962 11.47588 22036 ft 169 kts 71°
2026-04-29 20:59 9.45415 11.48661 15135 ft 349 kts 158°
2026-04-29 21:00 9.44339 11.48611 18647 ft 91 kts 231°
2026-04-29 21:00 9.44158 11.48012 17701 ft 77 kts 28°
2026-04-29 21:00 9.44084 11.47687 13625 ft 25 kts 139°
2026-04-29 21:00 9.44028 11.47521 9335 ft 33 kts 325°
2026-04-29 21:01 9.44006 11.47406 5373 ft 3 kts 186°
2026-04-29 21:01 9.44022 11.47402 1723 ft 14 kts 42°
2026-04-29 21:01 9.44040 11.47407 492 ft 0 kts 125°